User: anonymous   Login
Location: Middelsbur
(53.6609°N, 7.5020°E)
Time: 01:57:25
(UTC+00:00)
Language:

Cosmos 1452 Rocket - Orbit

View from above orbital plane
View from above orbital plane
View from above satellite
View from above satellite

Ground track
Ground track

The orbit data is extracted from the following two-line orbital elements,

1 13992U 83031B   20272.44948997 +.00000047 +00000-0 +24915-4 0  9992
2 13992 074.0536 327.3563 0005118 357.0292 003.0830 14.36198461960689
Epoch (UTC): 28 September 2020 10:47:15
Eccentricity: 0.0005118
inclination: 74.0536°
perigee height: 767 km
apogee height: 775 km
right ascension of ascending node: 327.3563°
argument of perigee: 357.0292°
revolutions per day: 14.36198461
mean anomaly at epoch: 3.0830°
orbit number at epoch: 96068

The dashed part of the orbit path shows where the satellite is in the earth's shadow,  

DLR